Time,TemperatureF,DewpointF,PressureIn,WindDirection,WindDirectionDegrees,WindSpeedMPH,WindSpeedGustMPH,Humidity,HourlyPrecipIn,Conditions,Clouds,dailyrainin,SolarRadiationWatts/m^2,SoftwareType,DateUTC
2013-03-10 00:00:00,36.0,32.0,-100.00,SE,135,8.0,-999.0,86,0.06,,,-99.99,0.000000,,2013-03-10 05:00:00,
2013-03-10 00:42:00,36.0,32.0,-100.00,SE,135,8.0,-999.0,86,0.06,,,-99.99,0.000000,,2013-03-10 05:42:00,
2013-03-10 00:52:00,36.0,32.0,-100.00,SE,135,8.0,-999.0,86,0.06,,,-99.99,0.000000,,2013-03-10 05:52:00,
2013-03-10 01:00:00,37.0,32.0,-100.00,SSE,157,5.0,-999.0,83,-99.99,,,-99.99,0.000000,,2013-03-10 06:00:00,
2013-03-10 01:42:00,37.0,32.0,-100.00,SSE,157,5.0,-999.0,83,-99.99,,,-99.99,0.000000,,2013-03-10 06:42:00,
2013-03-10 01:52:00,37.0,32.0,-100.00,SSE,157,5.0,-999.0,83,-99.99,,,-99.99,0.000000,,2013-03-10 06:52:00,
2013-03-10 11:00:00,38.0,36.0,-100.00,South,180,3.0,-999.0,93,-99.99,,,-99.99,38.279999,,2013-03-10 15:00:00,
2013-03-10 11:42:00,38.0,36.0,-100.00,South,180,3.0,-999.0,93,-99.99,,,-99.99,38.279999,,2013-03-10 15:42:00,
2013-03-10 11:52:00,38.0,36.0,-100.00,South,180,3.0,-999.0,93,-99.99,,,-99.99,38.279999,,2013-03-10 15:52:00,
2013-03-10 14:00:00,38.0,36.0,-100.00,SSW,202,1.0,-999.0,94,0.02,,,-99.99,62.639999,,2013-03-10 18:00:00,
2013-03-10 14:42:00,38.0,36.0,-100.00,SSW,202,1.0,-999.0,94,0.02,,,-99.99,62.639999,,2013-03-10 18:42:00,
2013-03-10 14:52:00,38.0,36.0,-100.00,SSW,202,1.0,-999.0,94,0.02,,,-99.99,62.639999,,2013-03-10 18:52:00,
2013-03-10 15:00:00,39.0,37.0,-100.00,SW,225,1.0,-999.0,94,-99.99,,,-99.99,83.519997,,2013-03-10 19:00:00,
2013-03-10 15:42:00,39.0,37.0,-100.00,SW,225,1.0,-999.0,94,-99.99,,,-99.99,83.519997,,2013-03-10 19:42:00,
2013-03-10 15:53:00,39.0,37.0,-100.00,SW,225,1.0,-999.0,94,-99.99,,,-99.99,83.519997,,2013-03-10 19:53:00,
2013-03-10 16:00:00,37.0,36.0,-100.00,ENE,67,2.0,-999.0,94,-99.99,,,-99.99,69.599998,,2013-03-10 20:00:00,
2013-03-10 16:43:00,37.0,36.0,-100.00,ENE,67,2.0,-999.0,94,-99.99,,,-99.99,69.599998,,2013-03-10 20:43:00,
2013-03-10 16:53:00,37.0,36.0,-100.00,ENE,67,2.0,-999.0,94,-99.99,,,-99.99,69.599998,,2013-03-10 20:53:00,
2013-03-10 17:00:00,37.0,36.0,-100.00,NE,45,3.0,-999.0,94,-99.99,,,-99.99,51.040001,,2013-03-10 21:00:00,
2013-03-10 17:43:00,37.0,36.0,-100.00,NE,45,3.0,-999.0,94,-99.99,,,-99.99,51.040001,,2013-03-10 21:43:00,
2013-03-10 17:53:00,37.0,36.0,-100.00,NE,45,3.0,-999.0,94,-99.99,,,-99.99,51.040001,,2013-03-10 21:53:00,
2013-03-10 18:00:00,36.0,35.0,-100.00,NE,45,7.0,-999.0,95,0.01,,,-99.99,35.959999,,2013-03-10 22:00:00,
2013-03-10 18:43:00,36.0,35.0,-100.00,NE,45,7.0,-999.0,95,0.01,,,-99.99,35.959999,,2013-03-10 22:43:00,
2013-03-10 18:53:00,36.0,35.0,-100.00,NE,45,7.0,-999.0,95,0.01,,,-99.99,35.959999,,2013-03-10 22:53:00,
2013-03-10 19:00:00,36.0,34.0,-100.00,ENE,67,6.0,-999.0,94,0.01,,,-99.99,18.559999,,2013-03-10 23:00:00,
2013-03-10 19:33:00,36.0,34.0,-100.00,ENE,67,6.0,-999.0,94,0.01,,,-99.99,18.559999,,2013-03-10 23:33:00,
2013-03-10 19:43:00,36.0,34.0,-100.00,ENE,67,6.0,-999.0,94,0.01,,,-99.99,18.559999,,2013-03-10 23:43:00,
2013-03-10 19:53:00,36.0,34.0,-100.00,ENE,67,6.0,-999.0,94,0.01,,,-99.99,18.559999,,2013-03-10 23:53:00,
2013-03-10 20:00:00,36.0,34.0,-100.00,ENE,67,8.0,-999.0,94,0.08,,,-99.99,1.160000,,2013-03-11 00:00:00,
2013-03-10 20:43:00,36.0,34.0,-100.00,ENE,67,8.0,-999.0,94,0.08,,,-99.99,1.160000,,2013-03-11 00:43:00,
2013-03-10 20:53:00,36.0,34.0,-100.00,ENE,67,8.0,-999.0,94,0.08,,,-99.99,1.160000,,2013-03-11 00:53:00,
2013-03-10 21:00:00,36.0,34.0,-100.00,ENE,67,8.0,-999.0,94,0.07,,,-99.99,0.000000,,2013-03-11 01:00:00,
2013-03-10 21:43:00,36.0,34.0,-100.00,ENE,67,8.0,-999.0,94,0.07,,,-99.99,0.000000,,2013-03-11 01:43:00,
2013-03-10 21:53:00,36.0,34.0,-100.00,ENE,67,8.0,-999.0,94,0.07,,,-99.99,0.000000,,2013-03-11 01:53:00,
2013-03-10 22:00:00,36.0,34.0,-100.00,ENE,67,10.0,-999.0,94,0.09,,,-99.99,0.000000,,2013-03-11 02:00:00,
2013-03-10 22:42:00,36.0,34.0,-100.00,ENE,67,10.0,-999.0,94,0.09,,,-99.99,0.000000,,2013-03-11 02:42:00,
2013-03-10 22:53:00,36.0,34.0,-100.00,ENE,67,10.0,-999.0,94,0.09,,,-99.99,0.000000,,2013-03-11 02:53:00,
2013-03-10 23:00:00,36.0,34.0,-100.00,ENE,67,11.0,-999.0,94,0.04,,,-99.99,0.000000,,2013-03-11 03:00:00,
2013-03-10 23:43:00,36.0,34.0,-100.00,ENE,67,11.0,-999.0,94,0.04,,,-99.99,0.000000,,2013-03-11 03:43:00,
2013-03-10 23:53:00,36.0,34.0,-100.00,ENE,67,11.0,-999.0,94,0.04,,,-99.99,0.000000,,2013-03-11 03:53:00,